FW5173 Weather Reports


time (UTC)temp
C
wind
direction
speed
KPH
gust
KPH
rain 1hr
cm
rain 24hr
cm
rain mn
cm
humidity
%
barometer
mb
20260503174536 16 68 1.6 9.7 0.00 0.00 0.00 40 1017.3
20260503173034 16 309 3.2 14.5 0.00 0.00 0.00 40 1017.4
20260503171533 16 102 9.7 16.1 0.00 0.00 0.00 41 1017.6
20260503081514 6 330 0.0 4.8 0.00 0.00 0.00 76 1016.1
20260503071509 6 299 3.2 8.0 0.00 0.00 0.00 78 1015.4
20260503054600 3 255 1.6 4.8 0.00 0.00 0.00 90 1015.4
20260503053056 3 353 0.0 0.0 0.00 0.00 0.00 90 1015.4
20260503051553 3 354 0.0 0.0 0.00 0.00 0.00 89 1015.3
20260503050051 3 354 0.0 0.0 0.00 0.00 0.00 87 1015.1
20260503044602 3 267 0.0 0.0 0.00 0.00 0.00 86 1015.0
20260503043051 4 267 0.0 0.0 0.00 0.00 0.00 85 1014.9
20260503041607 4 266 0.0 0.0 0.00 0.00 0.00 84 1014.7
20260503040051 5 276 0.0 0.0 0.00 0.00 0.00 83 1014.5
20260503034543 5 288 0.0 0.0 0.00 0.00 0.00 83 1014.4
20260503033043 5 293 0.0 3.2 0.00 0.00 0.00 82 1014.2
20260503031539 5 284 0.0 4.8 0.00 0.00 0.00 81 1014.1
20260503030037 5 279 0.0 1.6 0.00 0.00 0.00 80 1014.1
20260503024538 6 318 0.0 1.6 0.00 0.00 0.00 78 1014.0
20260503023031 6 288 0.0 3.2 0.00 0.00 0.00 77 1013.8
20260503021528 6 302 0.0 0.0 0.00 0.00 0.00 75 1013.6
20260503020025 8 292 0.0 0.0 0.00 0.00 0.00 70 1013.5
20260503014522 8 292 0.0 1.6 0.00 0.00 0.00 67 1013.3
20260503013017 10 299 0.0 1.6 0.00 0.00 0.00 62 1013.1
20260503011524 11 30 0.0 1.6 0.00 0.00 0.00 55 1012.9
20260503010010 11 312 0.0 8.0 0.00 0.00 0.00 53 1012.4
20260503004509 12 302 3.2 9.7 0.00 0.00 0.00 51 1012.2
20260503003008 12 313 1.6 11.3 0.00 0.00 0.00 50 1012.1
20260503001508 12 314 1.6 6.4 0.00 0.00 0.00 48 1011.8
20260503000010 13 313 0.0 6.4 0.00 0.00 0.00 46 1011.7
20260502234528 14 21 3.2 11.3 0.00 0.00 0.00 44 1011.5
20260502233010 15 319 6.4 20.9 0.00 0.00 0.00 42 1011.2
20260502231510 15 333 8.0 17.7 0.00 0.00 0.00 41 1011.0
20260502230008 16 20 9.7 25.7 0.00 0.00 0.00 40 1010.8
20260502224511 15 300 8.0 20.9 0.00 0.00 0.00 41 1010.8
20260502223008 16 49 8.0 24.1 0.00 0.00 0.00 40 1010.7
20260502221507 16 23 8.0 24.1 0.00 0.00 0.00 39 1010.2
20260502220018 17 309 9.7 27.4 0.00 0.00 0.00 37 1010.0
20260502214506 17 77 6.4 25.7 0.00 0.00 0.00 37 1009.7
20260502213019 17 3 9.7 24.1 0.00 0.00 0.00 37 1009.4
20260502211503 16 6 12.9 27.4 0.00 0.00 0.00 37 1009.4
20260502210004 17 296 8.0 25.7 0.00 0.00 0.00 36 1009.4
20260502204508 17 300 11.3 22.5 0.00 0.00 0.00 35 1009.3
20260502203007 17 12 8.0 20.9 0.00 0.00 0.00 35 1009.4
20260502201507 17 319 8.0 25.7 0.00 0.00 0.00 34 1009.6
20260502200006 17 352 12.9 32.2 0.00 0.00 0.00 36 1009.6
20260502194506 17 335 9.7 22.5 0.00 0.00 0.00 36 1009.6
20260502193004 17 354 12.9 30.6 0.00 0.00 0.00 35 1009.9
20260502191504 18 8 8.0 20.9 0.00 0.00 0.00 36 1010.0
20260502190000 17 264 8.0 20.9 0.00 0.00 0.00 36 1010.0
20260502184559 17 287 4.8 19.3 0.00 0.00 0.00 39 1010.0
20260502183102 17 347 6.4 20.9 0.00 0.00 0.00 38 1010.0
20260502181558 17 293 1.6 29.0 0.00 0.00 0.00 36 1010.1
20260502180105 17 8 4.8 19.3 0.00 0.00 0.00 39 1010.3